Location: Namasale
(1.5000°N, 32.6167°E)
Time: 18:32:43
(UTC+00:00)

Courier 1B - Pass Details

Date: 27 April 2021
Orbit: 962 x 1209 km, 28.3° (Epoch: 09 May)

Event Time Altitude Azimuth Distance (km) Brightness Sun altitude
Rises 16:57:45 0° 275° (W) 3,646 12.2 -16.7°
Reaches altitude 10° 17:00:48 10° 263° (W) 2,718 10.9 -17.5°
Maximum altitude 17:06:11 27° 207° (SSW) 1,831 9.0 -18.8°
Enters shadow 17:10:43 14° 158° (SSE) 2,535 9.3 -19.8°
Drops below altitude 10° 17:11:49 10° 152° (SSE) 2,836 - -20.1°
Sets 17:15:05 0° 140° (SE) 3,834 - -20.9°
